Location: Unspecified
(17.6330°N, 0.0000°E)
Time: 03:02:10
(UTC+00:00)

S-56A Canister/Altair - Pass Details

Date: 26 June 2019
Orbit: 632 x 2500 km, 38.9° (Epoch: 15 July)

Event Time Altitude Azimuth Distance (km) Brightness Sun altitude
Rises 09:01:56 0° 187° (S) 6,029 11.9 47.4°
Reaches altitude 10° 09:08:37 10° 167° (SSE) 5,145 11.8 49.0°
Maximum altitude 09:16:05 15° 137° (SE) 4,678 12.0 50.7°
Drops below altitude 10° 09:23:14 10° 106° (ESE) 4,954 12.3 52.3°
Sets 09:29:16 0° 87° (E) 5,698 12.5 53.7°
